| time (UTC) | temp F | wind direction | speed MPH | gust MPH | rain 1hr in | rain 24hr in | rain mn in | humidity % | barometer mb |
| 20260506172521 | 48 | 319 | 9.0 | 0.0 | 0.00 | 0.00 | 0.00 | 23 | 1020.7 |
| 20260506172021 | 47 | 315 | 9.0 | 0.0 | 0.00 | 0.00 | 0.00 | 23 | 1020.8 |
| 20260506171534 | 48 | 307 | 9.0 | 0.0 | 0.00 | 0.00 | 0.00 | 23 | 1020.9 |
| 20260506171019 | 48 | 310 | 8.0 | 0.0 | 0.00 | 0.00 | 0.00 | 24 | 1021.0 |
| 20260506170520 | 47 | 292 | 9.0 | 0.0 | 0.00 | 0.00 | 0.00 | 25 | 1021.1 |
| 20260506170017 | 47 | 340 | 9.0 | 0.0 | 0.00 | 0.00 | 0.00 | 25 | 1021.1 |
| 20260506165516 | 46 | 257 | 8.0 | 0.0 | 0.00 | 0.00 | 0.00 | 26 | 1021.2 |
| 20260506165016 | 46 | 269 | 10.0 | 0.0 | 0.00 | 0.00 | 0.00 | 26 | 1021.3 |
| 20260506164515 | 46 | 273 | 9.0 | 0.0 | 0.00 | 0.00 | 0.00 | 26 | 1021.4 |
| 20260506164016 | 46 | 263 | 7.0 | 0.0 | 0.00 | 0.00 | 0.00 | 26 | 1021.5 |
| 20260506163614 | 46 | 293 | 8.0 | 0.0 | 0.00 | 0.00 | 0.00 | 27 | 1021.6 |
| 20260506163013 | 45 | 265 | 8.0 | 0.0 | 0.00 | 0.00 | 0.00 | 28 | 1021.5 |
| 20260506162512 | 45 | 275 | 8.0 | 0.0 | 0.00 | 0.00 | 0.00 | 28 | 1021.7 |
| 20260506162012 | 45 | 276 | 8.0 | 0.0 | 0.00 | 0.00 | 0.00 | 28 | 1021.7 |
| 20260506161510 | 45 | 286 | 8.0 | 0.0 | 0.00 | 0.00 | 0.00 | 28 | 1021.7 |
| 20260506161009 | 44 | 259 | 8.0 | 0.0 | 0.00 | 0.00 | 0.00 | 30 | 1021.7 |
| 20260506160509 | 44 | 326 | 8.0 | 0.0 | 0.00 | 0.00 | 0.00 | 30 | 1021.9 |
| 20260506160008 | 44 | 251 | 8.0 | 0.0 | 0.00 | 0.00 | 0.00 | 32 | 1021.9 |
| 20260506155508 | 43 | 252 | 7.0 | 0.0 | 0.00 | 0.00 | 0.00 | 33 | 1022.0 |
| 20260506155006 | 43 | 252 | 5.0 | 0.0 | 0.00 | 0.00 | 0.00 | 33 | 1022.0 |
| 20260506154505 | 43 | 281 | 5.0 | 0.0 | 0.00 | 0.00 | 0.00 | 34 | 1022.0 |
| 20260506154008 | 42 | 302 | 6.0 | 0.0 | 0.00 | 0.00 | 0.00 | 34 | 1022.1 |
| 20260506153604 | 41 | 298 | 6.0 | 0.0 | 0.00 | 0.00 | 0.00 | 35 | 1022.2 |
| 20260506153004 | 41 | 242 | 7.0 | 0.0 | 0.00 | 0.00 | 0.00 | 35 | 1022.3 |
| 20260506152503 | 41 | 259 | 7.0 | 0.0 | 0.00 | 0.00 | 0.00 | 36 | 1022.3 |
| 20260506152003 | 41 | 228 | 8.0 | 0.0 | 0.00 | 0.00 | 0.00 | 36 | 1022.4 |
| 20260506151502 | 41 | 241 | 6.0 | 0.0 | 0.00 | 0.00 | 0.00 | 36 | 1022.5 |
| 20260506151001 | 41 | 257 | 5.0 | 0.0 | 0.00 | 0.00 | 0.00 | 37 | 1022.5 |
| 20260506150503 | 41 | 256 | 5.0 | 0.0 | 0.00 | 0.00 | 0.00 | 37 | 1022.5 |
| 20260506150200 | 40 | 242 | 5.0 | 0.0 | 0.00 | 0.00 | 0.00 | 37 | 1022.6 |
| 20260506145600 | 40 | 332 | 5.0 | 0.0 | 0.00 | 0.00 | 0.00 | 38 | 1022.5 |
| 20260506145057 | 39 | 297 | 4.0 | 0.0 | 0.00 | 0.00 | 0.00 | 39 | 1022.5 |
| 20260506144603 | 39 | 205 | 6.0 | 0.0 | 0.00 | 0.00 | 0.00 | 40 | 1022.6 |
| 20260506144055 | 38 | 279 | 5.0 | 0.0 | 0.00 | 0.00 | 0.00 | 40 | 1022.7 |
| 20260506143554 | 37 | 247 | 4.0 | 0.0 | 0.00 | 0.00 | 0.00 | 43 | 1022.8 |
| 20260506143054 | 37 | 250 | 4.0 | 0.0 | 0.00 | 0.00 | 0.00 | 43 | 1022.8 |
| 20260506142551 | 37 | 251 | 4.0 | 0.0 | 0.00 | 0.00 | 0.00 | 44 | 1022.8 |
| 20260506142051 | 36 | 282 | 3.0 | 0.0 | 0.00 | 0.00 | 0.00 | 45 | 1022.9 |
| 20260506141550 | 36 | 245 | 3.0 | 0.0 | 0.00 | 0.00 | 0.00 | 45 | 1023.0 |
| 20260506141049 | 36 | 261 | 2.0 | 0.0 | 0.00 | 0.00 | 0.00 | 47 | 1022.9 |
| 20260506140549 | 36 | 285 | 2.0 | 0.0 | 0.00 | 0.00 | 0.00 | 47 | 1023.0 |
| 20260506140048 | 35 | 334 | 1.0 | 0.0 | 0.00 | 0.00 | 0.00 | 48 | 1023.0 |
| 20260506135546 | 35 | 5 | 0.0 | 0.0 | 0.00 | 0.00 | 0.00 | 48 | 1023.0 |
| 20260506135045 | 34 | 5 | 1.0 | 0.0 | 0.00 | 0.00 | 0.00 | 49 | 1023.0 |
| 20260506134544 | 34 | 11 | 1.0 | 0.0 | 0.00 | 0.00 | 0.00 | 49 | 1023.0 |
| 20260506134043 | 33 | 11 | 0.0 | 0.0 | 0.00 | 0.00 | 0.00 | 51 | 1023.0 |
| 20260506133542 | 32 | 90 | 0.0 | 0.0 | 0.00 | 0.00 | 0.00 | 53 | 1023.1 |
| 20260506133042 | 32 | 90 | 0.0 | 0.0 | 0.00 | 0.00 | 0.00 | 54 | 1023.1 |
| 20260506132545 | 30 | 90 | 0.0 | 0.0 | 0.00 | 0.00 | 0.00 | 57 | 1023.1 |
| 20260506132040 | 30 | 90 | 1.0 | 0.0 | 0.00 | 0.00 | 0.00 | 57 | 1023.2 |
| 20260506131546 | 29 | 90 | 1.0 | 0.0 | 0.00 | 0.00 | 0.00 | 58 | 1023.2 |
| 20260506131038 | 28 | 90 | 2.0 | 0.0 | 0.00 | 0.00 | 0.00 | 60 | 1023.2 |
| 20260506130536 | 26 | 90 | 3.0 | 0.0 | 0.00 | 0.00 | 0.00 | 61 | 1023.2 |
| 20260506130034 | 25 | 90 | 3.0 | 0.0 | 0.00 | 0.00 | 0.00 | 63 | 1023.1 |
| 20260506125533 | 24 | 90 | 4.0 | 0.0 | 0.00 | 0.00 | 0.00 | 65 | 1023.2 |
| 20260506125032 | 23 | 90 | 3.0 | 0.0 | 0.00 | 0.00 | 0.00 | 67 | 1023.2 |
| 20260506124534 | 21 | 90 | 4.0 | 0.0 | 0.00 | 0.00 | 0.00 | 70 | 1023.1 |
| 20260506124033 | 18 | 90 | 3.0 | 0.0 | 0.00 | 0.00 | 0.00 | 75 | 1023.0 |
| 20260506123530 | 18 | 90 | 2.0 | 0.0 | 0.00 | 0.00 | 0.00 | 75 | 1023.0 |
| 20260506123029 | 17 | 90 | 2.0 | 0.0 | 0.00 | 0.00 | 0.00 | 75 | 1023.0 |
| 20260506122528 | 16 | 90 | 2.0 | 0.0 | 0.00 | 0.00 | 0.00 | 75 | 1022.9 |
| 20260506122030 | 15 | 90 | 2.0 | 0.0 | 0.00 | 0.00 | 0.00 | 75 | 1022.9 |
| 20260506121527 | 15 | 90 | 2.0 | 0.0 | 0.00 | 0.00 | 0.00 | 75 | 1022.9 |
| 20260506121027 | 14 | 90 | 2.0 | 0.0 | 0.00 | 0.00 | 0.00 | 75 | 1022.8 |
| 20260506120527 | 14 | 90 | 1.0 | 0.0 | 0.00 | 0.00 | 0.00 | 75 | 1022.9 |
| 20260506120027 | 13 | 90 | 1.0 | 0.0 | 0.00 | 0.00 | 0.00 | 75 | 1022.8 |
| 20260506115525 | 13 | 90 | 1.0 | 0.0 | 0.00 | 0.00 | 0.00 | 77 | 1022.7 |
| 20260506115024 | 12 | 90 | 1.0 | 0.0 | 0.00 | 0.00 | 0.00 | 77 | 1022.6 |
| 20260506114534 | 12 | 90 | 2.0 | 0.0 | 0.00 | 0.00 | 0.00 | 75 | 1022.6 |
| 20260506114024 | 12 | 90 | 2.0 | 0.0 | 0.00 | 0.00 | 0.00 | 75 | 1022.5 |
| 20260506113523 | 13 | 90 | 1.0 | 0.0 | 0.00 | 0.00 | 0.00 | 75 | 1022.4 |
| 20260506113024 | 13 | 90 | 1.0 | 0.0 | 0.00 | 0.00 | 0.00 | 75 | 1022.4 |
| 20260506112523 | 13 | 90 | 1.0 | 0.0 | 0.00 | 0.00 | 0.00 | 76 | 1022.3 |
| 20260506112023 | 12 | 90 | 2.0 | 0.0 | 0.00 | 0.00 | 0.00 | 76 | 1022.3 |
| 20260506111523 | 12 | 90 | 2.0 | 0.0 | 0.00 | 0.00 | 0.00 | 76 | 1022.3 |
| 20260506111023 | 12 | 90 | 1.0 | 0.0 | 0.00 | 0.00 | 0.00 | 74 | 1022.3 |
| 20260506110526 | 12 | 90 | 2.0 | 0.0 | 0.00 | 0.00 | 0.00 | 74 | 1022.3 |
| 20260506110024 | 13 | 90 | 2.0 | 0.0 | 0.00 | 0.00 | 0.00 | 73 | 1022.3 |
| 20260506105527 | 14 | 90 | 2.0 | 0.0 | 0.00 | 0.00 | 0.00 | 72 | 1022.3 |
| 20260506105022 | 14 | 90 | 2.0 | 0.0 | 0.00 | 0.00 | 0.00 | 73 | 1022.2 |
| 20260506104522 | 14 | 90 | 2.0 | 0.0 | 0.00 | 0.00 | 0.00 | 73 | 1022.2 |
| 20260506104022 | 14 | 90 | 3.0 | 0.0 | 0.00 | 0.00 | 0.00 | 75 | 1022.3 |
| 20260506103522 | 13 | 90 | 3.0 | 0.0 | 0.00 | 0.00 | 0.00 | 75 | 1022.2 |
| 20260506103021 | 13 | 90 | 3.0 | 0.0 | 0.00 | 0.00 | 0.00 | 75 | 1022.2 |
| 20260506102520 | 13 | 90 | 2.0 | 0.0 | 0.00 | 0.00 | 0.00 | 74 | 1022.2 |
| 20260506102020 | 13 | 90 | 2.0 | 0.0 | 0.00 | 0.00 | 0.00 | 74 | 1022.1 |
| 20260506101521 | 13 | 90 | 2.0 | 0.0 | 0.00 | 0.00 | 0.00 | 75 | 1022.1 |
| 20260506101020 | 13 | 90 | 2.0 | 0.0 | 0.00 | 0.00 | 0.00 | 74 | 1022.1 |
| 20260506100520 | 13 | 90 | 2.0 | 0.0 | 0.00 | 0.00 | 0.00 | 74 | 1022.1 |
| 20260506100024 | 13 | 90 | 2.0 | 0.0 | 0.00 | 0.00 | 0.00 | 75 | 1022.1 |
| 20260506095520 | 13 | 90 | 2.0 | 0.0 | 0.00 | 0.00 | 0.00 | 75 | 1022.1 |
| 20260506095020 | 13 | 90 | 2.0 | 0.0 | 0.00 | 0.00 | 0.00 | 74 | 1022.1 |
| 20260506094519 | 13 | 90 | 1.0 | 0.0 | 0.00 | 0.00 | 0.00 | 72 | 1022.2 |
| 20260506094017 | 14 | 90 | 2.0 | 0.0 | 0.00 | 0.00 | 0.00 | 73 | 1022.1 |
| 20260506093520 | 14 | 90 | 3.0 | 0.0 | 0.00 | 0.00 | 0.00 | 73 | 1022.0 |
| 20260506093017 | 14 | 90 | 3.0 | 0.0 | 0.00 | 0.00 | 0.00 | 73 | 1022.0 |
| 20260506092520 | 13 | 90 | 3.0 | 0.0 | 0.00 | 0.00 | 0.00 | 73 | 1022.1 |
| 20260506092017 | 14 | 90 | 2.0 | 0.0 | 0.00 | 0.00 | 0.00 | 72 | 1022.0 |
| 20260506091520 | 14 | 90 | 2.0 | 0.0 | 0.00 | 0.00 | 0.00 | 72 | 1022.0 |
| 20260506091016 | 14 | 90 | 2.0 | 0.0 | 0.00 | 0.00 | 0.00 | 72 | 1022.0 |
| 20260506090515 | 14 | 90 | 2.0 | 0.0 | 0.00 | 0.00 | 0.00 | 73 | 1021.9 |
| 20260506090016 | 14 | 90 | 3.0 | 0.0 | 0.00 | 0.00 | 0.00 | 73 | 1022.0 |
| 20260506085515 | 14 | 90 | 3.0 | 0.0 | 0.00 | 0.00 | 0.00 | 73 | 1021.9 |
| 20260506085015 | 14 | 90 | 3.0 | 0.0 | 0.00 | 0.00 | 0.00 | 73 | 1021.9 |
| 20260506084515 | 14 | 90 | 4.0 | 0.0 | 0.00 | 0.00 | 0.00 | 73 | 1021.9 |
| 20260506084014 | 14 | 90 | 3.0 | 0.0 | 0.00 | 0.00 | 0.00 | 72 | 1021.9 |
| 20260506083514 | 14 | 90 | 3.0 | 0.0 | 0.00 | 0.00 | 0.00 | 72 | 1021.9 |
| 20260506083014 | 14 | 90 | 3.0 | 0.0 | 0.00 | 0.00 | 0.00 | 72 | 1021.9 |
| 20260506082513 | 14 | 90 | 3.0 | 0.0 | 0.00 | 0.00 | 0.00 | 72 | 1021.9 |
| 20260506082012 | 14 | 90 | 4.0 | 0.0 | 0.00 | 0.00 | 0.00 | 71 | 1021.9 |
| 20260506081511 | 15 | 90 | 4.0 | 0.0 | 0.00 | 0.00 | 0.00 | 70 | 1021.9 |
| 20260506081010 | 15 | 90 | 3.0 | 0.0 | 0.00 | 0.00 | 0.00 | 68 | 1021.9 |
| 20260506080510 | 16 | 90 | 2.0 | 0.0 | 0.00 | 0.00 | 0.00 | 69 | 1021.9 |
| 20260506073506 | 16 | 90 | 2.0 | 0.0 | 0.00 | 0.00 | 0.00 | 69 | 1021.8 |
| 20260506073005 | 16 | 90 | 2.0 | 0.0 | 0.00 | 0.00 | 0.00 | 69 | 1021.9 |
| 20260506072503 | 16 | 90 | 2.0 | 0.0 | 0.00 | 0.00 | 0.00 | 69 | 1021.8 |
| 20260506072006 | 16 | 90 | 3.0 | 0.0 | 0.00 | 0.00 | 0.00 | 68 | 1021.7 |
| 20260506071503 | 16 | 90 | 3.0 | 0.0 | 0.00 | 0.00 | 0.00 | 69 | 1021.7 |
| 20260506071003 | 16 | 90 | 2.0 | 0.0 | 0.00 | 0.00 | 0.00 | 69 | 1021.7 |
| 20260506070505 | 16 | 90 | 2.0 | 0.0 | 0.00 | 0.00 | 0.00 | 69 | 1021.7 |
| 20260506062058 | 18 | 90 | 3.0 | 0.0 | 0.00 | 0.00 | 0.00 | 65 | 1021.5 |
| 20260506061556 | 18 | 83 | 3.0 | 0.0 | 0.00 | 0.00 | 0.00 | 65 | 1021.5 |
| 20260506061056 | 18 | 83 | 3.0 | 0.0 | 0.00 | 0.00 | 0.00 | 64 | 1021.5 |
| 20260506060553 | 19 | 83 | 2.0 | 0.0 | 0.00 | 0.00 | 0.00 | 62 | 1021.5 |
| 20260506051043 | 23 | 68 | 3.0 | 0.0 | 0.00 | 0.00 | 0.00 | 58 | 1021.0 |
| 20260506050545 | 24 | 68 | 3.0 | 0.0 | 0.00 | 0.00 | 0.00 | 57 | 1020.9 |
| 20260506045036 | 28 | 355 | 0.0 | 0.0 | 0.00 | 0.00 | 0.00 | 51 | 1021.0 |
| 20260506044543 | 29 | 300 | 0.0 | 0.0 | 0.00 | 0.00 | 0.00 | 51 | 1020.9 |
| 20260506044034 | 29 | 300 | 1.0 | 0.0 | 0.00 | 0.00 | 0.00 | 51 | 1020.9 |
| 20260506043533 | 29 | 300 | 1.0 | 0.0 | 0.00 | 0.00 | 0.00 | 50 | 1020.9 |
| 20260506042533 | 30 | 300 | 2.0 | 0.0 | 0.00 | 0.00 | 0.00 | 49 | 1020.9 |
| 20260506042032 | 31 | 300 | 2.0 | 0.0 | 0.00 | 0.00 | 0.00 | 48 | 1020.9 |
| 20260506041530 | 32 | 298 | 1.0 | 0.0 | 0.00 | 0.00 | 0.00 | 46 | 1020.8 |
| 20260506041032 | 33 | 290 | 1.0 | 0.0 | 0.00 | 0.00 | 0.00 | 45 | 1020.8 |
| 20260506040529 | 34 | 290 | 1.0 | 0.0 | 0.00 | 0.00 | 0.00 | 44 | 1020.8 |
| 20260506040028 | 35 | 290 | 3.0 | 0.0 | 0.00 | 0.00 | 0.00 | 43 | 1020.7 |
| 20260506035531 | 36 | 292 | 4.0 | 0.0 | 0.00 | 0.00 | 0.00 | 41 | 1020.7 |
| 20260506035029 | 37 | 305 | 5.0 | 0.0 | 0.00 | 0.00 | 0.00 | 40 | 1020.7 |
| 20260506034528 | 38 | 319 | 5.0 | 0.0 | 0.00 | 0.00 | 0.00 | 39 | 1020.6 |
| 20260506034027 | 39 | 320 | 5.0 | 0.0 | 0.00 | 0.00 | 0.00 | 39 | 1020.6 |
| 20260506033526 | 39 | 312 | 4.0 | 0.0 | 0.00 | 0.00 | 0.00 | 40 | 1020.6 |
| 20260506032526 | 39 | 310 | 2.0 | 0.0 | 0.00 | 0.00 | 0.00 | 40 | 1020.5 |
| 20260506032028 | 40 | 306 | 2.0 | 0.0 | 0.00 | 0.00 | 0.00 | 39 | 1020.4 |
| 20260506031532 | 40 | 296 | 3.0 | 0.0 | 0.00 | 0.00 | 0.00 | 39 | 1020.3 |
| 20260506031025 | 41 | 323 | 4.0 | 0.0 | 0.00 | 0.00 | 0.00 | 38 | 1020.3 |
| 20260506030527 | 41 | 309 | 5.0 | 0.0 | 0.00 | 0.00 | 0.00 | 38 | 1020.3 |
| 20260506030046 | 41 | 319 | 5.0 | 0.0 | 0.00 | 0.00 | 0.00 | 38 | 1020.3 |
| 20260506025524 | 41 | 323 | 6.0 | 0.0 | 0.00 | 0.00 | 0.00 | 38 | 1020.3 |
| 20260506025027 | 41 | 306 | 5.0 | 0.0 | 0.00 | 0.00 | 0.00 | 38 | 1020.2 |
| 20260506024528 | 41 | 312 | 5.0 | 0.0 | 0.00 | 0.00 | 0.00 | 38 | 1020.2 |
| 20260506024023 | 41 | 328 | 4.0 | 0.0 | 0.00 | 0.00 | 0.00 | 38 | 1020.1 |
| 20260506023522 | 41 | 316 | 2.0 | 0.0 | 0.00 | 0.00 | 0.00 | 38 | 1020.0 |
| 20260506022521 | 42 | 286 | 3.0 | 0.0 | 0.00 | 0.00 | 0.00 | 38 | 1019.9 |
| 20260506022020 | 42 | 311 | 5.0 | 0.0 | 0.00 | 0.00 | 0.00 | 37 | 1019.9 |
| 20260506021521 | 42 | 320 | 6.0 | 0.0 | 0.00 | 0.00 | 0.00 | 36 | 1019.9 |
| 20260506021021 | 43 | 310 | 7.0 | 0.0 | 0.00 | 0.00 | 0.00 | 35 | 1019.9 |
| 20260506020524 | 43 | 318 | 7.0 | 0.0 | 0.00 | 0.00 | 0.00 | 35 | 1019.9 |
| 20260506020020 | 43 | 306 | 8.0 | 0.0 | 0.00 | 0.00 | 0.00 | 35 | 1019.8 |
| 20260506015520 | 43 | 317 | 9.0 | 0.0 | 0.00 | 0.00 | 0.00 | 34 | 1019.8 |
| 20260506015020 | 43 | 316 | 8.0 | 0.0 | 0.00 | 0.00 | 0.00 | 34 | 1019.7 |
| 20260506014520 | 44 | 327 | 6.0 | 0.0 | 0.00 | 0.00 | 0.00 | 34 | 1019.6 |
| 20260506014020 | 44 | 315 | 8.0 | 0.0 | 0.00 | 0.00 | 0.00 | 34 | 1019.6 |
| 20260506013523 | 44 | 319 | 11.0 | 0.0 | 0.00 | 0.00 | 0.00 | 33 | 1019.6 |
| 20260506012520 | 44 | 314 | 12.0 | 0.0 | 0.00 | 0.00 | 0.00 | 32 | 1019.6 |
| 20260506012020 | 45 | 327 | 10.0 | 0.0 | 0.00 | 0.00 | 0.00 | 31 | 1019.6 |
| 20260506011530 | 45 | 276 | 10.0 | 0.0 | 0.00 | 0.00 | 0.00 | 32 | 1019.5 |
| 20260506011022 | 45 | 286 | 11.0 | 0.0 | 0.00 | 0.00 | 0.00 | 32 | 1019.4 |
| 20260506010520 | 45 | 315 | 11.0 | 0.0 | 0.00 | 0.00 | 0.00 | 31 | 1019.5 |
| 20260506010020 | 45 | 294 | 12.0 | 0.0 | 0.00 | 0.00 | 0.00 | 32 | 1019.4 |
| 20260506005520 | 45 | 327 | 11.0 | 0.0 | 0.00 | 0.00 | 0.00 | 31 | 1019.5 |
| 20260506005019 | 46 | 326 | 12.0 | 0.0 | 0.00 | 0.00 | 0.00 | 31 | 1019.3 |
| 20260506004536 | 46 | 308 | 14.0 | 0.0 | 0.00 | 0.00 | 0.00 | 31 | 1019.4 |
| 20260506004019 | 46 | 284 | 13.0 | 0.0 | 0.00 | 0.00 | 0.00 | 32 | 1019.3 |
| 20260506003519 | 45 | 321 | 12.0 | 0.0 | 0.00 | 0.00 | 0.00 | 32 | 1019.3 |
| 20260506002518 | 45 | 333 | 10.0 | 0.0 | 0.00 | 0.00 | 0.00 | 32 | 1019.4 |
| 20260506002019 | 45 | 331 | 11.0 | 0.0 | 0.00 | 0.00 | 0.00 | 33 | 1019.5 |
| 20260506001521 | 45 | 337 | 13.0 | 0.0 | 0.00 | 0.00 | 0.00 | 33 | 1019.5 |
| 20260506001019 | 44 | 304 | 12.0 | 0.0 | 0.00 | 0.00 | 0.00 | 34 | 1019.5 |
| 20260506000519 | 44 | 319 | 12.0 | 0.0 | 0.00 | 0.00 | 0.00 | 33 | 1019.5 |
| 20260506000023 | 44 | 313 | 12.0 | 0.0 | 0.00 | 0.00 | 0.00 | 33 | 1019.6 |
| 20260505235518 | 44 | 336 | 11.0 | 0.0 | 0.00 | 0.00 | 0.00 | 34 | 1019.5 |
| 20260505235018 | 44 | 338 | 11.0 | 0.0 | 0.00 | 0.00 | 0.00 | 34 | 1019.5 |
| 20260505234518 | 44 | 323 | 12.0 | 0.0 | 0.00 | 0.00 | 0.00 | 34 | 1019.5 |
| 20260505234018 | 44 | 327 | 12.0 | 0.0 | 0.00 | 0.00 | 0.00 | 34 | 1019.4 |
| 20260505233520 | 44 | 293 | 12.0 | 0.0 | 0.00 | 0.00 | 0.00 | 34 | 1019.4 |
| 20260505232518 | 44 | 338 | 11.0 | 0.0 | 0.00 | 0.00 | 0.00 | 34 | 1019.4 |
| 20260505232018 | 44 | 331 | 13.0 | 0.0 | 0.00 | 0.00 | 0.00 | 34 | 1019.4 |
| 20260505231525 | 44 | 310 | 13.0 | 0.0 | 0.00 | 0.00 | 0.00 | 34 | 1019.2 |
| 20260505231018 | 45 | 313 | 12.0 | 0.0 | 0.00 | 0.00 | 0.00 | 33 | 1019.2 |
| 20260505230519 | 45 | 321 | 12.0 | 0.0 | 0.00 | 0.00 | 0.00 | 33 | 1019.1 |
| 20260505230021 | 46 | 286 | 11.0 | 0.0 | 0.00 | 0.00 | 0.00 | 33 | 1019.1 |
| 20260505225518 | 45 | 321 | 11.0 | 0.0 | 0.00 | 0.00 | 0.00 | 33 | 1019.2 |
| 20260505225022 | 45 | 273 | 11.0 | 0.0 | 0.00 | 0.00 | 0.00 | 33 | 1019.1 |
| 20260505224517 | 45 | 300 | 12.0 | 0.0 | 0.00 | 0.00 | 0.00 | 33 | 1019.2 |
| 20260505224018 | 44 | 280 | 13.0 | 0.0 | 0.00 | 0.00 | 0.00 | 34 | 1019.1 |
| 20260505223518 | 44 | 308 | 13.0 | 0.0 | 0.00 | 0.00 | 0.00 | 34 | 1019.2 |
| 20260505222519 | 45 | 326 | 12.0 | 0.0 | 0.00 | 0.00 | 0.00 | 33 | 1019.2 |
| 20260505222017 | 45 | 331 | 14.0 | 0.0 | 0.00 | 0.00 | 0.00 | 35 | 1019.2 |
| 20260505221519 | 44 | 288 | 13.0 | 0.0 | 0.00 | 0.00 | 0.00 | 34 | 1019.3 |
| 20260505221016 | 44 | 342 | 12.0 | 0.0 | 0.00 | 0.00 | 0.00 | 34 | 1019.2 |
| 20260505220516 | 44 | 355 | 13.0 | 0.0 | 0.00 | 0.00 | 0.00 | 34 | 1019.2 |
| 20260505220016 | 44 | 313 | 13.0 | 0.0 | 0.00 | 0.00 | 0.00 | 34 | 1019.2 |
| 20260505215516 | 46 | 329 | 13.0 | 0.0 | 0.00 | 0.00 | 0.00 | 33 | 1019.1 |
| 20260505215020 | 44 | 321 | 13.0 | 0.0 | 0.00 | 0.00 | 0.00 | 34 | 1019.2 |
| 20260505214517 | 45 | 321 | 15.0 | 0.0 | 0.00 | 0.00 | 0.00 | 33 | 1019.4 |
| 20260505214016 | 45 | 272 | 13.0 | 0.0 | 0.00 | 0.00 | 0.00 | 33 | 1019.3 |
| 20260505213519 | 46 | 275 | 12.0 | 0.0 | 0.00 | 0.00 | 0.00 | 33 | 1019.3 |
| 20260505212515 | 44 | 330 | 13.0 | 0.0 | 0.00 | 0.00 | 0.00 | 35 | 1019.4 |
| 20260505212015 | 44 | 323 | 13.0 | 0.0 | 0.00 | 0.00 | 0.00 | 35 | 1019.4 |
| 20260505211514 | 44 | 312 | 12.0 | 0.0 | 0.00 | 0.00 | 0.00 | 34 | 1019.4 |
| 20260505211013 | 44 | 300 | 12.0 | 0.0 | 0.00 | 0.00 | 0.00 | 35 | 1019.4 |
| 20260505210515 | 44 | 329 | 12.0 | 0.0 | 0.00 | 0.00 | 0.00 | 35 | 1019.4 |
| 20260505210013 | 45 | 309 | 12.0 | 0.0 | 0.00 | 0.00 | 0.00 | 34 | 1019.5 |
| 20260505205513 | 44 | 280 | 12.0 | 0.0 | 0.00 | 0.00 | 0.00 | 35 | 1019.5 |
| 20260505205012 | 43 | 308 | 12.0 | 0.0 | 0.00 | 0.00 | 0.00 | 36 | 1019.6 |
| 20260505204514 | 43 | 339 | 12.0 | 0.0 | 0.00 | 0.00 | 0.00 | 36 | 1019.6 |
| 20260505204013 | 43 | 323 | 12.0 | 0.0 | 0.00 | 0.00 | 0.00 | 36 | 1019.7 |
| 20260505203511 | 43 | 340 | 13.0 | 0.0 | 0.00 | 0.00 | 0.00 | 37 | 1019.7 |
| 20260505202513 | 43 | 321 | 15.0 | 0.0 | 0.00 | 0.00 | 0.00 | 36 | 1019.6 |
| 20260505202012 | 43 | 320 | 14.0 | 0.0 | 0.00 | 0.00 | 0.00 | 36 | 1019.6 |
| 20260505201512 | 43 | 285 | 13.0 | 0.0 | 0.00 | 0.00 | 0.00 | 35 | 1019.8 |
| 20260505201012 | 43 | 286 | 14.0 | 0.0 | 0.00 | 0.00 | 0.00 | 36 | 1019.6 |
| 20260505200514 | 43 | 317 | 12.0 | 0.0 | 0.00 | 0.00 | 0.00 | 35 | 1019.7 |
| 20260505200014 | 43 | 275 | 12.0 | 0.0 | 0.00 | 0.00 | 0.00 | 36 | 1019.6 |
| 20260505195516 | 43 | 321 | 12.0 | 0.0 | 0.00 | 0.00 | 0.00 | 36 | 1019.7 |
| 20260505195012 | 43 | 323 | 12.0 | 0.0 | 0.00 | 0.00 | 0.00 | 36 | 1019.7 |
| 20260505194511 | 43 | 327 | 11.0 | 0.0 | 0.00 | 0.00 | 0.00 | 35 | 1019.8 |
| 20260505194011 | 43 | 328 | 10.0 | 0.0 | 0.00 | 0.00 | 0.00 | 35 | 1019.8 |
| 20260505193511 | 43 | 346 | 11.0 | 0.0 | 0.00 | 0.00 | 0.00 | 36 | 1019.8 |
| 20260505192510 | 42 | 310 | 11.0 | 0.0 | 0.00 | 0.00 | 0.00 | 36 | 1019.7 |
| 20260505192010 | 43 | 298 | 11.0 | 0.0 | 0.00 | 0.00 | 0.00 | 36 | 1019.6 |
| 20260505191510 | 42 | 271 | 11.0 | 0.0 | 0.00 | 0.00 | 0.00 | 36 | 1019.6 |
| 20260505191010 | 43 | 275 | 10.0 | 0.0 | 0.00 | 0.00 | 0.00 | 35 | 1019.6 |
| 20260505190509 | 42 | 303 | 11.0 | 0.0 | 0.00 | 0.00 | 0.00 | 36 | 1019.6 |
| 20260505190009 | 42 | 288 | 13.0 | 0.0 | 0.00 | 0.00 | 0.00 | 36 | 1019.6 |
| 20260505185509 | 42 | 320 | 12.0 | 0.0 | 0.00 | 0.00 | 0.00 | 35 | 1019.6 |
| 20260505185012 | 43 | 255 | 11.0 | 0.0 | 0.00 | 0.00 | 0.00 | 35 | 1019.5 |
| 20260505184517 | 42 | 269 | 12.0 | 0.0 | 0.00 | 0.00 | 0.00 | 36 | 1019.6 |
| 20260505184009 | 43 | 311 | 13.0 | 0.0 | 0.00 | 0.00 | 0.00 | 35 | 1019.6 |
| 20260505183509 | 43 | 334 | 13.0 | 0.0 | 0.00 | 0.00 | 0.00 | 34 | 1019.7 |
| 20260505182510 | 42 | 342 | 13.0 | 0.0 | 0.00 | 0.00 | 0.00 | 35 | 1019.6 |
| 20260505182007 | 42 | 305 | 13.0 | 0.0 | 0.00 | 0.00 | 0.00 | 36 | 1019.7 |
| 20260505181507 | 42 | 311 | 14.0 | 0.0 | 0.00 | 0.00 | 0.00 | 35 | 1019.6 |
| 20260505181007 | 42 | 305 | 15.0 | 0.0 | 0.00 | 0.00 | 0.00 | 36 | 1019.6 |
| 20260505180507 | 42 | 313 | 13.0 | 0.0 | 0.00 | 0.00 | 0.00 | 36 | 1019.5 |
| 20260505180008 | 41 | 288 | 13.0 | 0.0 | 0.00 | 0.00 | 0.00 | 37 | 1019.5 |
| 20260505175505 | 41 | 331 | 15.0 | 0.0 | 0.00 | 0.00 | 0.00 | 36 | 1019.6 |
| 20260505175005 | 41 | 313 | 13.0 | 0.0 | 0.00 | 0.00 | 0.00 | 36 | 1019.7 |
| 20260505174505 | 41 | 329 | 12.0 | 0.0 | 0.00 | 0.00 | 0.00 | 36 | 1019.6 |
| 20260505174005 | 41 | 351 | 14.0 | 0.0 | 0.00 | 0.00 | 0.00 | 36 | 1019.6 |
| 20260505173505 | 41 | 321 | 15.0 | 0.0 | 0.00 | 0.00 | 0.00 | 36 | 1019.7 |